Flag for U.S.A. Weather past 2 weeks in Midland, Texas, U.S.A.

Now
33 °F

Fog.


Feels Like: 25 °F
Forecast: 35 / 46 °F
Wind: 9 mph from Northeast

Location: Midland - Midland Airpark

Current Time: Mar 2, 2015 at 1:43:48 AM

Latest Report: Mar 2, 2015 at 1:15 AM


Visibility: 3 mi

Pressure: 30.35 "Hg

Humidity: 100%

Dew point: 33 °F

Location of MidlandLocation

Historic Weather in Midland — Graph

°F

Midland temperature yesterday

Maximum temperature yesterday: 38 °F (at 3:55 PM)
Minimum temperature yesterday: 31 °F (at 12:15 AM)
Average temperature yesterday: 33 °F

Past Weeks' High & Low Weather Summary

 TemperatureHumidityPressure
High79 °F (Feb 20, 3:15 PM)100% (Feb 22, 10:15 AM)30.52 "Hg (Feb 22, 10:15 AM)
Low20 °F (Feb 27, 10:55 PM)11% (Feb 20, 3:55 PM)29.72 "Hg (Feb 20, 4:55 PM)
Average41 °F71%30.12 "Hg
* Reported Feb 15 12:15 AM — Mar 2 12:35 AM, Midland, Weather by CustomWeather, © 2015

Note: Actual official high and low records may vary slightly from our data, if they occured in-between our weather recording intervals... More about our weather records

Advertising

Midland weather history for previous 24 hours

 ConditionsComfort  
Time TempWeatherWind HumidityBarometerVisibility
12:35 AM
Mon, Mar 2
33 °FFog.9 mph100%30.34 "Hg2 mi
12:15 AM33 °FFog.10 mph100%30.34 "Hg2 mi
11:55 PM
Sun, Mar 1
33 °FFog.10 mph100%30.35 "Hg2 mi
11:35 PM33 °FFog.9 mph100%30.35 "Hg4 mi
11:15 PM33 °FFog.8 mph100%30.36 "Hg3 mi
10:55 PM33 °FFog.9 mph100%30.34 "Hg4 mi
10:35 PM33 °FFog.15 mph100%30.33 "Hg3 mi
10:15 PM33 °FFog.10 mph100%30.34 "Hg3 mi
9:55 PM33 °FFog.10 mph100%30.34 "Hg2 mi
9:15 PM33 °FFog.9 mph100%30.34 "Hg2 mi
8:55 PM34 °FFog.10 mph100%30.32 "Hg1 mi
8:35 PM34 °FFog.9 mph100%30.31 "Hg1 mi
8:15 PM34 °FFog.10 mph100%30.29 "Hg2 mi
7:55 PM34 °FFog.10 mph100%30.28 "Hg1 mi
7:35 PM35 °FFog.8 mph100%30.27 "Hg1 mi
7:15 PM35 °FFog.14 mph100%30.26 "Hg1 mi
6:55 PM36 °FFog.12 mph100%30.25 "Hg1 mi
6:35 PM36 °FFog.13 mph100%30.24 "Hg1 mi
6:15 PM36 °FFog.12 mph100%30.23 "Hg1 mi
5:55 PM36 °FFog.10 mph100%30.23 "Hg1 mi
5:35 PM37 °FFog.12 mph100%30.22 "Hg1 mi
5:15 PM37 °FFog.10 mph100%30.21 "Hg1 mi
4:55 PM37 °FFog.10 mph100%30.22 "Hg2 mi
4:35 PM37 °FFog.9 mph100%30.22 "Hg3 mi
4:15 PM38 °FLow clouds.10 mph100%30.21 "Hg7 mi
3:55 PM38 °FLow clouds.8 mph100%30.22 "Hg10 mi
3:15 PM37 °FLow clouds.9 mph100%30.22 "Hg7 mi
2:55 PM37 °FFog.7 mph100%30.22 "Hg4 mi
2:35 PM37 °FFog.8 mph100%30.21 "Hg4 mi
2:15 PM37 °FFog.8 mph100%30.22 "Hg2 mi
1:35 PM36 °FFog.8 mph100%30.25 "Hg2 mi
1:15 PM36 °FFog.8 mph100%30.25 "Hg2 mi
12:55 PM35 °FFog.6 mph100%30.26 "Hg2 mi
12:35 PM35 °FFog.6 mph100%30.26 "Hg2 mi
12:15 PM34 °FFog.6 mph100%30.27 "Hg1 mi
11:55 AM34 °FFog.5 mph100%30.28 "Hg1 mi
11:35 AM33 °FFog.5 mph100%30.28 "Hg1 mi
11:15 AM33 °FFog.No wind100%30.28 "Hg1 mi
10:55 AM33 °FFog.3 mph100%30.28 "Hg1 mi
10:35 AM33 °FFog.5 mph100%30.27 "Hg1 mi
10:15 AM32 °FFog.5 mph100%30.27 "Hg1 mi
9:55 AM32 °FFog.3 mph100%30.27 "Hg1 mi
9:15 AM32 °FIce fog.5 mph100%30.26 "Hg1 mi
8:55 AM32 °FIce fog.5 mph100%30.25 "Hg1 mi
8:35 AM31 °FIce fog.5 mph100%30.24 "Hg1 mi
8:15 AM31 °FIce fog.3 mph100%30.24 "Hg1 mi
7:55 AM31 °FIce fog.3 mph100%30.23 "Hg1 mi
7:35 AM31 °FIce fog.3 mph100%30.23 "Hg1 mi
7:15 AM31 °FIce fog.5 mph100%30.22 "Hg1 mi
6:55 AM31 °FIce fog.6 mph100%30.21 "Hg1 mi
6:35 AM31 °FIce fog.3 mph100%30.21 "Hg1 mi
6:15 AM31 °FIce fog.3 mph100%30.20 "Hg1 mi
5:55 AM31 °FIce fog.6 mph100%30.20 "Hg1 mi
5:35 AM31 °FIce fog.5 mph100%30.19 "Hg1 mi
5:15 AM31 °FIce fog.3 mph100%30.19 "Hg1 mi
4:55 AM31 °FIce fog.3 mph100%30.18 "Hg1 mi
4:35 AM31 °FIce fog.3 mph100%30.19 "Hg1 mi
4:15 AM31 °FIce fog.3 mph100%30.18 "Hg1 mi
3:55 AM31 °FIce fog.3 mph100%30.18 "Hg1 mi
3:35 AM31 °FIce fog.5 mph100%30.18 "Hg1 mi
3:15 AM31 °FIce fog.5 mph100%30.18 "Hg1 mi
2:55 AM31 °FIce fog.5 mph100%30.19 "Hg1 mi
2:15 AM31 °FIce fog.5 mph100%30.19 "Hg1 mi
1:55 AM31 °FIce fog.3 mph100%30.20 "Hg1 mi
1:35 AM31 °FIce fog.3 mph100%30.19 "Hg2 mi
1:15 AM31 °FIce fog.3 mph100%30.19 "Hg1 mi
Weather by CustomWeather, © 2015

See weather overviewHow to use our weather pages